Location: Pedholt
(56.0260°N, 10.2097°E)
Time: 00:36:35
(UTC+00:00)

Transit 2A Rocket - Pass Details

Date: 02 August 2021
Orbit: 586 x 917 km, 66.7° (Epoch: 27 September)

Event Time Altitude Azimuth Distance (km) Brightness Sun altitude
Rises 13:09:15 0° 195° (SSW) 2,871 8.6 46.9°
Reaches altitude 10° 13:11:32 10° 188° (S) 2,004 8.0 46.7°
Maximum altitude 13:15:42 38° 120° (ESE) 1,005 6.0 46.3°
Drops below altitude 10° 13:20:15 10° 53° (NE) 2,186 7.1 45.9°
Sets 13:22:50 0° 46° (NE) 3,169 7.8 45.7°
